Flag for Czech Republic Weather past 2 weeks in Tábor, Czech Republic

Now
43 °F

Fog.


Feels Like: 43 °F
Forecast: 42 / 72 °F
Wind: 1 mph from West

Location: Kocelovice

Current Time: Aug 28, 2014 at 7:40:56 AM

Latest Report: Aug 28, 2014 at 7:00 AM


Visibility: 6 mi

Pressure: 30.16 "Hg

Humidity: 98%

Dew point: 42 °F

Location of TáborLocation

Historic Weather in Tábor — Graph

°F

Tábor temperature yesterday

Maximum temperature yesterday: 63 °F (at 5:00 PM)
Minimum temperature yesterday: 49 °F (at 11:00 PM)
Average temperature yesterday: 55 °F

Past Weeks' High & Low Weather Summary

 TemperatureHumidityPressure
High67 °F (Aug 22, 5:00 PM)100% (Aug 15, 3:00 AM)30.15 "Hg (Aug 15, 3:00 AM)
Low40 °F (Aug 25, 6:00 AM)43% (Aug 22, 1:00 PM)29.66 "Hg (Aug 13, 6:00 PM)
Average56 °F80%29.95 "Hg
* Reported Aug 13 6:00 AM — Aug 28 6:00 AM, Tábor, Weather by CustomWeather, © 2014

Note: Actual official high and low records may vary slightly from our data, if they occured in-between our weather recording intervals... More about our weather records

Advertising

Tábor weather history for previous 24 hours

 ConditionsComfort  
Time TempWeatherWind HumidityBarometerVisibility
6:00 AM
Aug 28
41 °FFog.N/A98%30.15 "Hg2 mi
5:00 AM42 °FFog.N/A98%30.15 "Hg4 mi
4:00 AM43 °FQuite cool.1 mph97%30.14 "Hg8 mi
3:00 AM44 °FFog.2 mph97%30.13 "Hg4 mi
2:00 AM45 °FQuite cool.N/A94%30.14 "Hg7 mi
1:00 AM46 °FCool.N/A95%30.13 "Hg10 mi
12:00 AM47 °FCool.1 mph94%30.12 "Hg7 mi
11:00 PM
Aug 27
49 °FCool.2 mph94%30.11 "Hg10 mi
10:00 PM52 °FPassing clouds.1 mph83%30.09 "Hg31 mi
9:00 PM54 °FPassing clouds.N/A77%30.07 "Hg37 mi
8:00 PM57 °FPassing clouds.N/A69%30.04 "Hg40 mi
7:00 PM60 °FPassing clouds.N/A60%30.01 "Hg43 mi
6:00 PM61 °FScattered clouds.N/A55%30.00 "Hg40 mi
5:00 PM63 °FPartly sunny.6 mph48%29.98 "Hg40 mi
4:00 PM62 °FScattered clouds.5 mph49%29.98 "Hg37 mi
3:00 PM60 °FPassing clouds.3 mph54%29.97 "Hg31 mi
2:00 PM60 °FScattered clouds.3 mph52%29.97 "Hg25 mi
1:00 PM57 °FPartly sunny.3 mph71%29.97 "Hg22 mi
12:00 PM57 °FPartly sunny.3 mph79%29.95 "Hg17 mi
11:00 AM54 °FOvercast.3 mph88%29.93 "Hg14 mi
10:00 AM53 °FLight rain. Low clouds.3 mph96%29.91 "Hg11 mi
9:00 AM52 °FLight rain. Low clouds.2 mph97%29.89 "Hg7 mi
8:00 AM52 °FLight rain. Low clouds.2 mph98%29.84 "Hg9 mi
7:00 AM51 °FLight rain. Cloudy.7 mph97%29.80 "Hg12 mi
Weather by CustomWeather, © 2014

See weather overviewHow to use our weather pages